MDT,Max TemperatureF,Mean TemperatureF,Min TemperatureF,Max Dew PointF,MeanDew PointF,Min DewpointF,Max Humidity, Mean Humidity, Min Humidity, Max Sea Level PressureIn, Mean Sea Level PressureIn, Min Sea Level PressureIn, Max VisibilityMiles, Mean VisibilityMiles, Min VisibilityMiles, Max Wind SpeedMPH, Mean Wind SpeedMPH, Max Gust SpeedMPH,PrecipitationIn, CloudCover, Events, WindDirDegrees
2013-8-1,76,68,59,60,53,40,90,64,37,30.32,30.12,29.99,10,9,1,24,6,33,0.29,6,Rain-Thunderstorm,94
2013-8-2,84,70,55,57,53,47,93,66,39,30.35,30.07,29.91,10,10,6,22,6,30,0.23,4,Rain-Thunderstorm,18
2013-8-3,82,69,56,60,54,50,93,65,36,30.37,30.07,29.97,10,10,6,20,6,24,0.01,2,Rain-Thunderstorm,336
2013-8-4,85,70,54,57,50,45,77,53,28,30.28,30.11,29.96,10,10,2,23,5,30,0.13,3,Rain-Thunderstorm,339
2013-8-5,83,69,54,57,52,45,100,64,28,30.13,30.02,29.92,10,10,10,21,6,25,0.01,1,Rain,272
2013-8-6,81,70,58,57,50,46,93,64,35,30.19,30.02,29.92,10,10,7,22,8,31,0.13,5,Rain-Thunderstorm,288
2013-8-7,72,64,55,57,54,51,100,75,49,30.23,30.06,29.95,10,9,2,23,3,29,0.40,6,Rain-Thunderstorm,298
2013-8-8,67,59,51,56,53,48,100,78,56,30.26,30.13,29.98,10,9,1,13,4,16,0.06,6,Rain-Thunderstorm,70
2013-8-9,79,62,44,50,46,41,93,60,27,30.25,30.13,30.03,10,10,6,21,4,28,0.03,1,Rain-Thunderstorm,113
2013-8-10,79,64,49,55,48,44,89,61,33,30.44,30.22,30.06,10,10,4,45,5,63,0.09,2,Rain-Thunderstorm,28
2013-8-11,79,63,46,49,45,42,93,61,29,30.30,30.16,30.04,10,10,10,16,3,33,0.00,0,Thunderstorm,307
2013-8-12,81,67,52,49,46,42,77,52,26,30.23,30.06,29.98,10,10,10,16,5,21,T,1,Thunderstorm,295
2013-8-13,84,66,48,48,41,32,80,49,17,30.15,30.07,30.01,10,10,10,18,5,25,0.00,0,,283
2013-8-14,86,66,46,42,37,32,76,46,15,30.11,30.04,29.99,10,10,10,22,5,28,0.00,0,,333
2013-8-15,88,67,45,43,35,30,65,39,13,30.10,30.03,29.97,10,10,10,21,5,24,0.00,0,,349
2013-8-16,90,70,49,41,34,27,56,34,11,30.10,30.03,29.98,10,10,10,18,4,25,0.00,0,,266
2013-8-17,87,69,51,46,39,34,55,36,17,30.29,30.07,29.97,10,10,10,31,6,40,T,1,Thunderstorm,307
2013-8-18,86,70,53,47,45,41,66,45,23,30.12,30.04,29.96,10,10,10,16,5,22,0.00,1,,340
2013-8-19,88,70,52,49,46,42,66,44,21,30.22,30.03,29.95,10,10,10,18,5,23,0.00,0,Thunderstorm,16
2013-8-20,87,71,54,49,47,45,71,47,23,30.24,30.01,29.89,10,10,10,22,5,28,T,1,Rain-Thunderstorm,13
2013-8-21,88,69,50,59,48,42,100,61,21,30.38,30.07,29.94,10,10,8,26,7,35,0.07,3,Rain-Thunderstorm,40
2013-8-22,85,68,51,55,49,43,96,61,25,30.14,30.02,29.93,10,10,10,16,5,21,0.00,1,Thunderstorm,274
2013-8-23,86,70,54,55,44,23,83,47,10,30.26,30.00,29.85,10,10,10,28,7,36,0.02,3,Rain-Thunderstorm,147
2013-8-24,77,67,57,57,52,46,86,62,38,30.32,30.07,29.94,10,10,4,20,7,26,0.13,6,Rain-Thunderstorm,67
2013-8-25,72,65,57,61,58,55,100,81,61,30.42,30.28,30.11,10,7,1,14,4,16,0.73,8,Rain-Thunderstorm,61
2013-8-26,80,68,56,59,56,50,100,69,37,30.42,30.18,30.03,10,9,1,13,2,16,0.02,3,Rain,79
2013-8-27,83,69,55,57,52,45,93,60,26,30.09,30.02,29.94,10,10,10,13,4,21,T,1,Rain,261
2013-8-28,86,71,56,55,50,40,87,54,20,30.04,29.99,29.93,10,10,10,14,4,17,0.00,1,,319
2013-8-29,86,70,53,57,52,47,93,62,31,30.32,30.09,30.00,10,10,8,21,4,26,0.02,2,Rain-Thunderstorm,81
2013-8-30,89,73,56,56,50,43,93,57,21,30.28,30.08,29.93,10,10,10,24,5,33,T,1,Rain-Thunderstorm,50
2013-8-31,87,71,55,55,51,47,86,57,27,30.32,30.01,29.87,10,10,10,20,5,26,T,1,Rain-Thunderstorm,335